Terug naar catalogus

COSMOS 2251 DEB

ActiefLEO
NORAD 33838·DEBRIS·🇷🇺 Russia

Gelanceerd Jun 16, 1993 vanaf Plesetsk Cosmodrome

Loading…

Volgende Passages (komende 24 uur)

TLE

VersSource: Space-Track

Epoch: Sep 14, 2026, 06:09 UTC

1 33838U 93036CF  26257.25660493  .00000721  00000-0  19651-3 0  9998
2 33838  74.0393 353.5066 0026058  43.8773 346.7876 14.49035886925593

Volg COSMOS 2251 DEB in realtime met AllMySat

Download on the App Store